GFSMW_925_temp_000.txt.gz
Temp
26 25 25 25 25 25 25 24 22 22 22 22 21 20 19 19 19 19 18 18 18 17 16 16 16 16 16 16 16 16 16 16 17 17 17 17 17 18 17 18 18 18 17
26 25 24 24 23 23 22 21 20 21 20 20 19 19 18 18 18 18 17 17 16 16 16 16 16 15 15 14 15 15 15 15 16 15 15 14 15 17 17 17 17 17 17
25 24 23 22 22 21 21 20 19 18 18 19 18 18 18 17 17 16 16 16 16 15 15 15 15 14 14 13 14 14 14 13 13 14 13 12 12 14 15 16 16 16 16
25 24 22 21 20 19 19 19 18 18 17 18 17 17 17 16 16 15 14 14 14 14 14 14 14 13 13 12 13 12 12 12 12 11 11 9 8 8 9 12 12 13 13
23 22 22 20 19 19 18 19 18 18 17 16 15 15 15 14 14 14 14 14 13 13 13 13 12 12 11 11 11 11 11 10 9 9 8 7 7 7 6 7 6 8 10
23 22 21 20 19 18 18 18 18 18 17 16 16 15 14 14 14 14 13 12 12 11 11 11 11 10 10 10 10 9 9 8 7 7 6 6 6 5 5 5 5 5 5
22 22 22 21 19 19 18 18 18 18 18 17 16 15 15 14 13 12 11 10 10 10 10 10 10 9 9 9 8 8 7 6 5 5 5 4 4 4 4 3 3 4 4
22 21 21 20 20 19 19 18 17 17 17 16 15 15 13 12 12 10 10 10 10 9 9 9 9 8 7 7 6 6 5 5 5 5 5 4 4 4 3 3 2 2 2
22 22 21 20 20 19 19 18 17 17 17 16 14 13 12 11 11 10 10 10 9 9 8 7 6 6 6 5 4 4 4 4 3 3 3 3 3 4 4 3 3 3 3
22 21 21 20 20 19 18 17 17 16 15 13 12 11 11 11 10 10 10 9 8 7 7 6 5 5 4 4 3 2 2 3 3 3 2 2 3 3 4 4 4 4 4
21 21 20 19 18 17 17 16 14 13 13 12 11 11 11 10 10 10 8 7 6 6 5 5 4 4 3 3 3 3 2 2 2 2 2 2 2 1 2 2 4 5 5
19 19 18 16 16 15 14 14 12 12 12 11 10 10 10 10 9 8 7 6 6 5 5 5 4 4 4 3 3 2 2 2 2 2 2 2 3 3 3 3 4 4 5
19 18 17 16 16 15 14 13 13 12 11 10 10 10 10 9 8 7 7 6 6 5 5 5 4 4 4 4 4 3 3 2 1 2 2 2 3 3 3 3 3 3 3
17 16 16 15 14 13 13 13 13 12 11 10 10 10 9 8 7 7 6 6 5 5 5 5 4 4 4 3 2 1 1 0 0 -0 -0 0 1 2 2 2 2 1 1
16 15 14 14 14 13 13 13 13 12 11 9 9 9 9 8 7 6 6 5 5 5 4 4 4 3 3 1 0 -1 -1 -2 -2 -2 -1 -1 0 1 1 1 0 0 -0
14 14 14 13 13 13 13 12 12 12 12 11 10 9 9 8 6 6 5 5 5 4 4 4 3 3 2 1 -1 -2 -3 -3 -3 -3 -3 -2 -1 -0 0 0 -0 -1 -1
13 13 13 13 13 12 12 12 11 11 11 11 10 9 5 4 4 5 5 5 5 4 4 3 3 2 1 -0 -2 -3 -4 -4 -4 -4 -3 -3 -2 -2 -2 -2 -2 -2 -3
12 13 13 13 12 12 11 11 10 10 10 10 10 7 5 5 5 5 4 4 4 4 4 3 2 1 0 -1 -2 -3 -4 -5 -5 -5 -5 -4 -4 -4 -3 -4 -4 -4 -4
13 13 13 12 12 11 10 9 9 9 9 10 8 6 4 6 5 4 3 4 4 4 3 2 1 -0 -1 -2 -3 -5 -5 -5 -5 -6 -5 -5 -5 -5 -4 -4 -5 -5 -4
13 13 12 12 11 10 9 9 9 8 8 5 5 5 5 5 5 4 4 4 4 3 2 0 -1 -1 -2 -2 -4 -5 -6 -6 -6 -6 -6 -5 -5 -6 -6 -6 -5 -5 -5
13 12 12 11 10 9 9 8 8 8 6 5 4 3 2 4 4 4 4 4 3 3 1 -0 -1 -1 -2 -3 -5 -6 -6 -7 -7 -7 -7 -6 -6 -6 -7 -7 -7 -7 -6
12 12 11 10 9 9 8 8 7 6 5 4 4 3 4 4 4 4 3 3 3 1 -0 -1 -1 -2 -3 -4 -5 -7 -7 -7 -8 -8 -7 -7 -7 -7 -7 -7 -7 -7 -7
12 11 10 9 9 8 8 7 6 5 4 4 4 4 4 4 3 3 3 3 2 0 -1 -2 -3 -4 -5 -5 -7 -8 -8 -8 -8 -8 -8 -8 -7 -8 -7 -7 -7 -7 -7
11 10 9 9 9 8 7 6 5 4 3 3 3 3 3 3 3 3 3 1 0 -1 -2 -3 -4 -5 -6 -7 -8 -8 -9 -9 -9 -9 -8 -8 -8 -8 -7 -7 -7 -7 -7
10 9 9 8 7 7 6 5 3 2 2 2 2 2 2 2 2 2 1 0 -1 -2 -3 -4 -6 -7 -8 -8 -8 -8 -9 -9 -9 -9 -8 -9 -9 -8 -8 -8 -8 -7 -7
8 8 8 7 7 6 5 4 3 2 1 0 0 1 1 1 1 1 0 -0 -1 -3 -3 -5 -6 -7 -8 -8 -8 -8 -8 -9 -9 -9 -9 -9 -9 -9 -8 -8 -8 -8 -8

GFSMW_925_temp_003.txt.gz
Temp
21 20 21 22 21 21 21 19 20 21 21 20 20 19 19 18 18 17 18 18 18 17 16 16 16 16 15 15 15 15 15 15 15 15 14 15 16 16 17 17 17 16 16
20 20 19 20 19 20 19 19 18 19 19 18 18 18 18 18 19 18 18 16 15 15 15 15 15 14 14 14 14 14 14 13 14 13 12 10 13 15 15 15 13 12 12
19 19 18 19 19 19 19 19 19 19 18 18 19 18 18 17 17 16 15 15 14 14 14 14 13 13 13 13 13 13 12 12 12 12 11 7 7 8 12 12 11 11 9
19 18 18 18 18 18 18 18 18 19 18 17 17 16 15 14 14 14 14 13 12 13 13 12 12 12 11 11 11 11 11 11 10 10 10 8 8 5 5 8 8 9 8
17 16 18 18 18 18 18 18 18 17 17 17 16 15 15 14 14 13 12 12 12 12 11 11 11 11 10 10 10 9 9 9 8 7 7 7 7 6 6 6 5 5 5
17 18 18 18 18 18 18 18 18 18 17 17 15 15 15 14 12 12 12 11 11 11 11 10 10 10 9 9 8 8 8 7 7 7 6 6 5 4 4 3 4 4 4
17 16 17 18 18 18 18 18 18 18 17 16 15 15 14 12 11 11 10 10 10 10 10 9 9 8 7 7 7 6 6 5 5 5 4 5 5 4 4 4 4 3 3
17 17 19 18 19 19 19 18 18 17 17 16 14 13 12 11 11 10 10 10 10 10 8 8 7 7 6 5 5 4 4 4 4 4 4 4 4 3 3 3 3 3 3
16 18 19 19 17 17 17 17 17 16 15 14 13 12 11 10 9 9 10 10 8 8 7 7 6 5 5 5 4 4 3 3 2 2 2 2 2 2 2 1 2 2 2
17 16 16 16 16 15 15 15 14 13 12 12 11 11 10 9 9 9 8 7 7 7 6 6 5 5 4 4 3 3 3 3 2 2 1 2 2 1 0 0 -0 0 2
14 14 15 15 15 14 14 14 13 13 13 12 12 11 11 10 9 9 8 7 7 6 6 5 5 4 4 4 3 3 3 2 2 2 1 2 2 2 2 2 1 0 0
14 14 15 15 14 13 13 13 13 13 12 12 11 10 10 10 9 8 7 7 6 6 5 5 4 4 4 4 3 2 2 1 1 1 1 1 1 1 1 2 2 3 2
13 12 13 14 13 13 13 13 13 12 12 12 11 10 9 9 8 7 7 6 5 5 5 5 4 4 4 3 3 2 1 0 0 -0 -1 -1 -1 -0 -0 1 1 2 2
12 12 12 12 13 13 13 12 12 12 12 11 10 9 9 8 7 6 5 5 5 5 5 4 4 4 3 3 2 1 0 -1 -1 -2 -2 -2 -2 -1 -1 -1 1 1 1
12 11 11 12 12 12 11 11 11 11 10 9 9 10 9 7 5 3 4 3 4 5 4 4 4 4 3 2 1 -0 -1 -2 -2 -3 -4 -4 -3 -2 -2 -1 -1 -0 -0
11 11 11 12 12 11 11 10 9 9 9 8 8 9 7 5 4 3 3 4 5 5 4 4 4 3 2 1 -0 -2 -2 -2 -4 -4 -4 -5 -4 -3 -3 -3 -3 -3 -3
10 10 11 11 11 11 9 9 8 8 8 7 7 6 5 4 3 2 4 4 4 4 4 4 3 2 1 -0 -1 -2 -3 -4 -4 -5 -5 -5 -5 -5 -4 -4 -4 -4 -4
10 10 11 11 11 9 9 8 8 7 7 6 5 5 5 3 3 3 4 4 4 4 4 3 2 1 -0 -1 -2 -3 -4 -5 -5 -5 -6 -6 -6 -6 -5 -5 -5 -4 -4
11 11 11 11 10 9 8 8 7 7 6 5 5 4 4 4 3 2 4 4 4 4 3 2 1 -0 -1 -2 -3 -4 -5 -6 -6 -6 -6 -6 -6 -6 -6 -6 -6 -6 -5
12 11 11 10 9 8 8 7 7 6 5 4 4 4 3 3 3 2 4 4 4 3 1 0 -1 -1 -2 -4 -4 -5 -6 -7 -7 -7 -7 -7 -7 -6 -6 -6 -7 -7 -6
12 12 11 9 9 8 8 7 6 6 5 4 3 3 3 3 3 3 3 3 3 1 0 -1 -2 -2 -4 -5 -6 -7 -7 -8 -8 -8 -8 -8 -7 -7 -7 -7 -7 -7 -7
11 11 10 9 9 8 7 6 5 5 4 3 3 3 3 3 3 3 3 3 1 1 -1 -1 -3 -3 -4 -5 -7 -7 -7 -8 -9 -9 -8 -8 -7 -7 -7 -7 -7 -7 -7
10 9 9 9 8 7 6 6 4 4 3 3 2 2 2 3 3 3 2 2 1 -0 -1 -2 -3 -4 -5 -7 -7 -8 -8 -8 -9 -9 -9 -8 -8 -8 -8 -8 -8 -7 -7
8 8 8 7 6 6 6 5 4 3 3 2 1 1 2 2 2 2 1 1 -0 -1 -2 -3 -4 -5 -6 -7 -8 -8 -8 -8 -8 -8 -8 -9 -9 -9 -8 -8 -8 -8 -8
7 7 6 5 5 6 5 4 4 3 2 1 1 1 1 1 1 1 0 -1 -1 -2 -2 -3 -4 -5 -7 -8 -7 -7 -8 -8 -8 -9 -9 -9 -9 -9 -9 -9 -9 -8 -8
6 5 5 4 4 4 3 3 3 3 2 1 0 0 0 0 0 -0 -1 -2 -2 -2 -2 -3 -4 -6 -7 -7 -7 -7 -8 -8 -9 -9 -9 -9 -9 -9 -9 -9 -9 -9 -9

GFSMW_925_temp_006.txt.gz
Temp
17 17 17 17 17 17 17 18 19 18 18 18 18 18 18 18 17 17 17 16 16 16 15 15 14 14 14 13 13 13 13 13 13 13 12 13 13 14 13 12 11 11 11
17 16 16 17 17 17 17 18 17 18 18 17 18 18 17 17 16 16 15 15 14 14 14 13 13 12 12 12 12 12 11 11 11 11 10 9 11 12 11 11 10 8 8
16 16 16 17 18 18 18 18 18 18 18 18 17 17 17 17 16 15 15 14 13 13 12 12 12 11 11 11 11 11 10 9 9 9 9 6 6 6 9 9 9 8 7
16 16 16 17 17 17 17 18 18 18 18 18 18 17 16 15 14 13 13 12 12 12 11 11 10 10 9 9 9 9 9 9 8 8 8 7 7 6 6 7 7 7 6
15 14 16 17 18 18 18 18 18 18 17 17 17 16 15 14 13 12 12 11 11 11 10 10 10 9 9 8 8 7 6 6 6 6 5 6 6 5 4 4 4 4 4
14 15 17 18 18 18 18 18 18 17 17 16 16 15 14 13 12 11 11 10 10 10 10 9 8 8 7 7 6 5 4 4 4 4 4 4 4 4 3 3 2 3 4
14 14 16 17 18 18 18 18 17 17 16 16 14 14 12 11 11 10 10 10 10 9 8 8 7 7 6 5 5 4 4 3 3 3 3 3 2 2 2 2 2 2 3
14 14 15 15 16 15 15 15 14 14 14 12 11 11 11 10 10 10 9 8 8 8 7 7 6 6 5 5 4 4 3 3 3 2 2 2 2 1 1 1 1 2 2
13 13 13 14 14 14 14 14 14 13 13 12 12 12 12 11 11 10 9 8 8 7 7 6 6 5 5 4 4 3 3 3 3 2 2 1 1 1 1 0 -0 -1 0
13 12 13 13 13 13 14 13 13 13 12 12 12 12 11 10 10 10 9 8 8 7 6 6 5 5 4 4 4 3 3 3 2 2 1 1 1 1 1 1 0 -0 -1
12 11 12 13 13 13 13 12 12 12 12 12 11 11 11 10 9 8 7 7 6 5 6 5 5 4 4 4 3 3 3 2 1 1 0 0 0 -0 -0 -0 -0 -0 -0
12 11 12 12 12 12 12 11 11 11 10 10 10 10 10 9 9 7 7 6 6 5 5 5 4 4 4 3 3 3 2 1 1 -0 -1 -1 -1 -1 -1 -1 -1 -1 0
10 10 11 11 11 11 11 11 10 10 9 9 9 8 8 8 8 7 6 5 5 3 3 4 4 4 4 4 3 1 0 -0 -1 -2 -2 -2 -3 -3 -3 -3 -2 -2 -1
10 10 10 10 11 11 11 10 9 9 9 9 8 7 7 7 6 5 4 4 1 2 3 4 4 4 3 3 1 1 -0 -1 -2 -2 -3 -3 -4 -4 -4 -3 -3 -3 -2
10 10 10 10 10 10 9 9 9 8 8 8 7 6 6 6 6 5 4 3 4 3 4 4 4 3 3 2 0 -1 -1 -2 -2 -3 -4 -4 -5 -5 -4 -5 -4 -4 -4
10 10 10 10 10 9 8 8 8 8 7 7 6 6 5 5 4 4 3 3 3 3 3 4 3 3 2 1 -0 -1 -2 -2 -3 -4 -5 -5 -5 -5 -5 -5 -5 -5 -5
10 9 9 10 9 8 8 8 8 7 7 6 5 5 5 4 4 3 2 2 3 2 3 3 2 2 -0 -1 -2 -2 -3 -4 -5 -5 -6 -6 -6 -6 -6 -6 -5 -5 -5
10 9 10 9 9 9 8 8 7 7 6 6 5 4 4 4 3 3 2 1 2 3 3 2 1 -0 -1 -2 -3 -4 -5 -5 -6 -6 -6 -7 -7 -7 -7 -6 -6 -6 -6
11 11 10 10 9 8 8 7 7 6 6 5 4 4 3 3 3 3 3 2 2 3 2 0 -1 -2 -2 -4 -5 -6 -7 -7 -7 -7 -7 -7 -7 -7 -6 -6 -6 -6 -6
11 11 10 9 8 8 8 7 6 6 5 4 4 3 3 3 3 3 2 2 2 2 0 -1 -2 -3 -4 -5 -6 -6 -7 -8 -8 -8 -8 -8 -8 -7 -7 -6 -7 -7 -7
11 10 9 8 8 7 7 6 6 5 4 4 3 3 3 2 3 3 3 2 2 0 -1 -2 -3 -4 -5 -6 -7 -7 -8 -8 -8 -9 -9 -8 -8 -7 -7 -7 -7 -7 -7
8 8 8 8 7 7 6 6 5 4 4 3 3 2 2 2 2 2 2 2 0 -1 -2 -2 -3 -4 -5 -6 -7 -8 -8 -8 -8 -9 -9 -8 -8 -8 -8 -8 -8 -7 -7
7 7 7 6 6 5 5 5 5 4 4 3 2 1 1 1 1 1 1 0 -0 -1 -2 -3 -4 -5 -5 -6 -7 -8 -8 -8 -8 -9 -8 -9 -9 -9 -8 -9 -8 -8 -8
6 6 5 4 4 4 4 4 3 3 2 2 2 1 0 0 1 0 -0 -1 -1 -2 -2 -3 -4 -5 -5 -6 -7 -7 -8 -8 -8 -8 -9 -9 -9 -9 -9 -9 -9 -9 -8
5 4 4 3 3 3 2 2 2 2 2 1 1 1 0 -0 -0 -1 -1 -2 -2 -2 -3 -3 -4 -4 -6 -6 -7 -7 -8 -8 -9 -9 -9 -9 -9 -10 -10 -10 -9 -9 -9
4 3 3 2 2 2 1 1 0 1 -0 -0 0 0 -0 -0 -1 -1 -2 -2 -2 -2 -2 -3 -4 -4 -6 -6 -7 -7 -8 -8 -9 -9 -10 -10 -10 -10 -10 -11 -10 -10 -10

GFSMW_925_temp_009.txt.gz
Temp
14 14 15 16 17 17 17 17 15 15 16 17 17 16 17 16 16 15 15 15 14 14 14 13 13 12 12 12 11 11 11 10 10 10 10 11 12 11 11 10 9 9 8
15 14 15 17 17 17 17 17 17 17 17 17 17 17 16 16 15 14 14 14 13 13 13 13 12 12 11 11 10 9 9 9 9 8 8 6 9 9 9 9 8 7 6
14 14 15 16 18 18 18 18 18 18 18 18 18 17 16 15 15 14 13 13 12 12 12 11 11 10 10 9 8 8 7 7 7 7 7 5 5 5 8 7 7 6 6
14 14 15 16 17 17 18 18 18 18 18 18 17 17 17 15 13 12 11 11 11 10 10 10 10 9 8 8 8 7 6 6 4 6 5 5 5 3 4 6 5 5 5
14 13 15 17 18 18 18 18 18 17 17 17 16 16 15 13 11 11 10 10 10 9 9 9 8 9 8 7 7 6 5 4 4 3 3 3 3 4 3 3 3 3 4
13 14 16 16 16 15 15 15 15 15 16 15 15 14 13 11 10 10 10 10 9 9 9 8 8 7 7 7 6 4 4 4 3 3 2 2 2 2 2 2 2 2 2
13 14 14 14 14 15 16 15 15 15 13 13 12 11 11 11 11 12 11 11 11 9 8 7 7 7 6 5 5 4 4 3 3 2 2 2 1 1 1 1 1 1 1
13 11 12 12 13 13 14 14 14 13 13 13 13 12 12 12 12 11 11 11 10 8 7 6 6 5 5 5 4 4 3 3 3 2 2 2 1 1 1 0 -1 -0 0
11 11 11 12 12 13 13 13 12 12 12 12 11 11 11 10 10 9 9 9 8 7 6 5 3 3 4 4 4 3 3 3 2 2 2 1 1 1 1 0 -0 -1 -1
11 10 11 12 13 13 12 12 12 11 11 11 10 10 9 9 9 9 9 8 7 6 5 4 3 4 4 4 4 3 3 3 3 2 1 0 0 0 -0 -0 -1 -1 -1
10 10 11 12 12 12 12 11 11 10 10 10 9 9 9 9 9 8 8 7 6 5 5 4 3 3 4 4 4 3 3 3 2 0 -0 -1 -1 -1 -2 -2 -2 -2 -2
10 10 11 11 11 11 10 10 10 10 9 9 8 8 8 7 7 7 5 5 4 4 3 3 3 3 4 4 3 3 2 1 0 -1 -1 -1 -2 -2 -3 -3 -4 -4 -3
9 9 10 10 10 10 10 10 9 9 9 9 8 8 7 6 6 6 6 5 5 5 5 4 3 3 4 3 3 2 1 -0 -1 -2 -2 -3 -3 -4 -4 -4 -5 -4 -4
9 9 8 9 9 9 9 9 9 9 9 8 8 7 6 6 5 5 5 5 5 4 3 3 3 3 3 3 2 1 -0 -1 -1 -2 -3 -4 -4 -5 -5 -5 -5 -5 -5
10 9 8 9 9 9 9 9 9 8 8 8 7 6 6 5 5 4 4 4 3 2 2 2 3 3 2 2 1 -0 -1 -2 -2 -3 -4 -5 -5 -5 -5 -5 -5 -5 -5
11 10 10 9 9 9 9 9 8 8 7 7 6 6 5 4 4 3 3 2 2 2 2 3 3 2 2 0 -0 -1 -2 -3 -4 -5 -5 -6 -6 -6 -6 -6 -6 -6 -5
10 9 9 9 9 9 9 8 8 7 7 6 6 5 4 4 3 3 3 2 2 2 2 2 1 1 -1 -1 -2 -3 -4 -5 -6 -6 -7 -7 -7 -7 -7 -7 -7 -6 -6
9 8 9 9 9 9 8 8 8 7 6 6 5 4 4 4 3 2 2 2 2 2 1 1 -0 -1 -1 -2 -3 -5 -6 -7 -7 -7 -7 -8 -8 -8 -7 -7 -7 -6 -6
9 10 10 10 9 8 8 7 7 6 5 6 5 4 3 3 2 2 2 2 2 1 0 -1 -1 -1 -3 -4 -5 -6 -7 -7 -8 -8 -8 -8 -8 -8 -7 -7 -6 -6 -6
10 9 9 8 8 8 7 6 6 6 6 5 4 3 3 2 2 2 2 2 1 1 -0 -1 -2 -3 -4 -5 -6 -7 -7 -8 -8 -8 -8 -8 -8 -7 -7 -7 -7 -7 -7
8 8 8 7 7 6 6 5 5 5 5 4 4 3 2 1 2 1 2 2 2 0 -1 -1 -3 -4 -5 -6 -7 -7 -8 -8 -8 -9 -9 -8 -8 -8 -7 -8 -8 -7 -7
7 7 7 6 6 5 5 4 4 4 4 4 3 2 1 1 1 1 1 1 -0 -1 -2 -3 -4 -5 -5 -6 -7 -7 -8 -8 -8 -9 -9 -9 -8 -8 -8 -8 -8 -8 -8
6 6 5 5 4 4 3 3 3 3 2 2 2 1 1 0 0 1 0 -1 -1 -1 -2 -3 -4 -5 -5 -6 -7 -7 -8 -8 -8 -9 -9 -9 -9 -9 -9 -9 -9 -9 -9
5 5 4 3 3 3 2 2 1 1 1 1 1 0 -0 -0 -0 0 -1 -1 -2 -2 -3 -3 -4 -5 -5 -6 -7 -7 -8 -8 -8 -9 -9 -9 -9 -9 -10 -9 -9 -9 -9
4 4 3 2 2 2 1 1 0 -0 0 0 -0 -1 -2 -1 -1 -1 -1 -2 -2 -2 -3 -3 -4 -4 -5 -6 -7 -7 -8 -8 -9 -9 -9 -10 -10 -10 -11 -10 -10 -10 -10
3 2 2 2 1 1 0 -0 -1 -1 -1 -2 -2 -2 -2 -2 -1 -1 -2 -2 -2 -2 -3 -4 -4 -4 -5 -6 -7 -7 -8 -8 -9 -9 -10 -10 -11 -11 -11 -12 -11 -11 -11

GFSMW_925_temp_012.txt.gz
Temp
13 13 13 14 15 15 15 16 16 15 15 15 15 16 16 15 15 15 15 15 14 14 14 13 12 12 11 10 10 10 9 9 8 8 8 10 10 9 8 8 8 7 7
13 13 13 15 16 16 16 15 16 16 16 17 17 16 15 15 14 14 13 12 12 12 12 11 11 11 10 10 9 9 8 8 7 6 6 5 7 8 8 7 7 6 5
13 13 14 15 15 15 16 16 16 17 17 17 17 16 16 15 13 12 12 11 11 10 10 10 10 10 10 9 8 8 7 7 6 5 5 4 3 4 6 6 6 5 5
13 13 14 16 17 16 17 17 16 16 17 17 17 16 15 14 12 11 11 10 10 10 10 10 9 9 8 8 7 6 6 5 4 4 5 4 3 3 3 5 4 4 4
13 14 14 15 15 16 16 16 16 16 16 16 15 14 13 12 10 10 10 11 12 11 10 9 8 7 7 6 5 5 5 4 4 3 2 2 2 3 2 2 3 2 2
13 13 13 14 14 15 16 16 15 15 14 14 13 12 12 11 11 11 11 11 10 10 10 8 7 6 5 5 4 4 4 4 3 3 2 1 1 1 1 1 1 1 1
11 11 12 13 13 14 14 14 13 13 12 12 12 12 11 11 11 11 10 10 10 10 9 6 6 5 4 4 4 3 3 3 3 2 2 2 1 1 0 -0 0 -0 0
12 11 11 11 12 12 13 13 12 11 11 11 10 10 10 9 9 9 9 9 9 9 7 6 5 4 4 3 3 3 4 3 3 3 2 2 1 1 0 -0 -1 -2 -1
9 9 10 11 11 12 11 11 11 11 11 11 10 10 10 9 9 9 9 8 8 8 6 5 4 3 3 3 3 3 3 3 3 3 2 1 1 -0 -0 -1 -2 -2 -3
9 9 10 10 11 11 11 11 11 11 10 10 10 9 9 9 8 8 8 8 7 5 5 4 3 2 2 3 3 3 3 3 3 2 1 0 -0 -1 -1 -1 -2 -2 -3
8 8 9 10 11 11 11 11 11 11 10 9 9 9 8 8 7 7 7 6 6 5 5 4 4 3 3 3 2 3 3 2 2 1 -0 -1 -1 -1 -2 -2 -3 -4 -4
8 9 10 10 10 10 10 11 10 10 9 9 8 8 7 7 6 6 5 5 5 5 5 4 3 3 3 3 2 3 2 2 1 -0 -1 -1 -2 -3 -3 -4 -4 -5 -5
8 8 9 9 9 9 10 9 9 9 9 9 8 7 7 6 6 5 5 4 4 4 3 2 2 2 3 3 3 2 2 0 -0 -1 -2 -2 -3 -4 -4 -5 -5 -5 -6
8 8 8 9 9 9 10 9 9 9 9 8 7 7 6 5 5 4 4 3 3 2 3 2 2 3 3 2 2 1 0 -0 -1 -2 -3 -4 -5 -5 -5 -5 -6 -6 -6
8 8 7 8 9 9 9 9 9 8 8 7 7 6 6 5 4 4 3 3 3 3 2 2 2 2 2 2 1 -0 -1 -2 -3 -4 -4 -5 -6 -5 -6 -6 -6 -6 -6
9 9 8 9 9 9 9 9 8 8 7 7 6 6 5 4 4 4 3 3 2 2 2 1 1 1 2 -0 -1 -1 -2 -4 -5 -6 -7 -7 -7 -7 -7 -7 -7 -6 -6
9 9 9 9 9 9 9 8 8 8 7 6 6 6 5 4 4 3 2 2 2 2 1 1 1 0 -1 -1 -2 -3 -4 -5 -6 -7 -7 -8 -7 -8 -8 -7 -7 -7 -6
9 8 9 9 9 9 8 8 7 7 6 6 6 5 4 3 3 2 2 2 1 1 1 -0 -1 -1 -1 -2 -3 -4 -5 -6 -7 -8 -8 -8 -8 -8 -7 -7 -6 -7 -7
9 9 10 9 9 8 8 7 6 6 6 6 5 4 3 3 2 2 2 2 1 1 0 -1 -1 -1 -3 -4 -5 -6 -7 -7 -8 -8 -8 -8 -8 -8 -7 -7 -7 -7 -7
9 9 8 8 7 7 6 6 5 5 4 4 4 4 3 2 2 1 1 1 1 1 0 -1 -2 -3 -3 -4 -5 -7 -7 -8 -8 -8 -8 -8 -8 -7 -7 -7 -8 -8 -7
8 7 7 7 6 6 5 4 4 4 3 3 3 3 2 2 1 1 1 1 0 -1 -1 -2 -2 -3 -4 -5 -6 -7 -7 -8 -8 -8 -9 -9 -9 -8 -7 -8 -8 -8 -8
6 6 6 6 5 4 4 3 3 2 2 2 1 1 1 1 1 0 1 0 -0 -2 -2 -2 -3 -4 -5 -6 -6 -7 -8 -8 -8 -9 -9 -9 -8 -9 -9 -9 -8 -9 -9
5 5 5 4 4 3 2 2 2 1 1 1 1 0 -0 -0 -0 -1 -0 -1 -1 -2 -2 -2 -3 -4 -5 -6 -6 -7 -8 -8 -8 -9 -9 -9 -9 -10 -10 -10 -10 -9 -10
5 5 4 3 3 2 2 1 1 0 -0 -0 -1 -1 -1 -1 -1 -1 -1 -1 -1 -2 -2 -3 -3 -4 -5 -5 -6 -7 -7 -8 -8 -9 -9 -9 -10 -10 -10 -10 -10 -10 -11
4 4 3 2 2 1 1 0 -1 -1 -1 -2 -2 -2 -3 -2 -2 -1 -1 -2 -2 -2 -3 -3 -3 -4 -4 -5 -6 -7 -7 -8 -8 -9 -10 -10 -10 -11 -11 -11 -11 -11 -11
3 3 2 1 1 0 -0 -1 -2 -2 -2 -1 -1 -2 -3 -2 -2 -2 -2 -2 -2 -3 -3 -3 -3 -4 -4 -5 -6 -7 -7 -8 -8 -9 -10 -11 -11 -11 -12 -12 -12 -12 -12